Home   Weather   Osøyro   Past weeks

Flag for Norway Past Weather in Osøyro, Norway — Yesterday and Last 2 Weeks

Now
51 °F

Sunny.


Feels Like: 49 °F
Forecast: 40 / 53 °F
Wind: 5 mph from Southwest

Location: Bergen / Flesland

Current Time: Apr 30, 2017 at 7:14:04 pm

Latest Report: Apr 30, 2017 at 6:00 pm


Visibility: 25 mi

Pressure: 30.10 "Hg

Humidity: 49%

Dew Point: 32 °F

Location of OsøyroLocation

Past Weather in Osøyro — Graph

°F

Osøyro Temperature Yesterday

Maximum temperature yesterday: 52 °F (at 5:00 pm)
Minimum temperature yesterday: 40 °F (at 3:00 am)
Average temperature yesterday: 46 °F

High & Low Weather Summary for the Past Weeks

 TemperatureHumidityPressure
High52 °F (Apr 29, 5:00 pm)98% (Apr 20, 12:00 am)30.58 "Hg (Apr 20, 12:00 am)
Low32 °F (Apr 18, 1:00 am)31% (Apr 25, 6:00 pm)29.54 "Hg (Apr 24, 5:00 am)
Average40 °F73%30.01 "Hg
* Reported Apr 15 5:00 pm — Apr 30 5:00 pm, Osøyro, Weather by CustomWeather, © 2017

Note: Actual official high and low records may vary slightly from our data, if they occured in-between our weather recording intervals... More about our weather records

Advertising

Osøyro Weather History for the Previous 24 Hours

Scroll right to see more
 ConditionsComfort  
Time TempWeatherWind HumidityBarometerVisibility
5:00 pm
Sun, Apr 30
51 °FSunny.6 mph46%30.10 "Hg19 mi
4:00 pm51 °FSunny.5 mph43%30.11 "Hg25 mi
3:00 pm51 °FPassing clouds.5 mph45%30.12 "Hg19 mi
2:00 pm51 °FPartly sunny.5 mph44%30.13 "Hg22 mi
1:00 pm50 °FScattered clouds.5 mph45%30.14 "Hg25 mi
12:00 pm50 °FPassing clouds.5 mph47%30.15 "Hg25 mi
11:00 am49 °FSunny.5 mph41%30.15 "Hg25 mi
10:00 am47 °FSunny.6 mph41%30.16 "Hg22 mi
9:00 am45 °FSunny.2 mph48%30.16 "Hg25 mi
8:00 am42 °FSunny.No wind55%30.17 "Hg25 mi
7:00 am37 °FSunny.1 mph67%30.17 "Hg28 mi
6:00 am36 °FSunny.1 mph63%30.17 "Hg31 mi
5:00 am34 °FClear.No wind69%30.18 "Hg31 mi
4:00 am34 °FClear.No wind71%30.18 "Hg31 mi
3:00 am36 °FClear.No wind67%30.18 "Hg31 mi
2:00 am38 °FClear.1 mph55%30.18 "Hg31 mi
1:00 am39 °FClear.2 mph60%30.19 "Hg31 mi
12:00 am40 °FPassing clouds.2 mph55%30.19 "Hg31 mi
11:00 pm
Sat, Apr 29
41 °FPassing clouds.2 mph55%30.19 "Hg31 mi
10:00 pm45 °FOvercast.No wind46%30.19 "Hg31 mi
9:00 pm47 °FOvercast.2 mph42%30.17 "Hg31 mi
8:00 pm49 °FOvercast.3 mph39%30.16 "Hg31 mi
7:00 pm49 °FOvercast.6 mph41%30.16 "Hg28 mi
Weather by CustomWeather, © 2017

See weather overviewHow to use our weather pages